STARLINK-5650, 55475

Orbit data source: Space-Track

STARLINK-5650, 55475 is a payload satellite owned by SpaceX/Seattle (US) in LEO that was launched on Thu, 02 Feb 2023 UTC via an FALCON 9 launch vehicle from the Air Force Eastern Test Range (AFETR). Payload-class satellites include a variety of spacecraft equipped with specific instruments for various scientific and technological missions. These include communications satellites like Starlink; space stations such as the ISS; scientific satellites like the Hubble; Earth observation satellites from companies like Planet Labs, Umbra, and HawkEye 360; GPS; miniature CubeSats for education and research; and military/defense satellites.

Loading next visibility...
Identifier
55475, 2023-015AC
Orbit
LEO
Country
Flag of USUS
Related business
Manufacturer
SpaceX/Seattle
Mission
Operational Commercial Communications
Bus & Motor
STARLINK, Unknown motor
Mass
305 kg wet, ~290 kg dry
Launch date (UTC)
2023-02-02 (4 years ago)
Launch vehicle
FALCON 9
Launch site
Air Force Eastern Test Range (AFETR)
Object type
Payload
Rocket body
Debris
Shape & HBR
Box + 1 Pan, 10.1 m
Radar Cross Section
13.562 m², Large (>1 m²)

Expand to show TLE details & history
Last TLE update: 8 hours ago

TLE from 8 hours ago
0 STARLINK-5650
1 55475U 23015AC  26258.59570935 -.00000727  00000-0 -16889-4 0  9997
2 55475  43.0043 336.4036 0001421 280.3758  79.6933 15.27567858199761
Epoch: 2026-09-15T14:17Z
TLE epoch observation values (Epoch: 2026-09-15T14:17:49.287Z)
Latitude
-0.00007°
Longitude
127.38877°
Altitude
482.687 km
Speed
7.626 km/s
True Right ascension
22h 25m 36s
True Declination
0° 00' 00"
Sunlit
Object was in full shadow at epoch
Visualization orbit readout
Latitude
Unknown
Longitude
Unknown
Altitude
Unknown
Speed
Unknown
Apparent Right ascension
Unknown
Apparent Declination
Unknown
Sunlit
N/A
Visualization observer readout
Local Sidereal Time
14:52:51
Azimuth
Unknown
Elevation
Unknown
Doppler factor
Unknown
Orbital elements
Apogee altitude
486.005 km
Perigee altitude
484.055 km
Semi-major axis
6,863.167 km
Eccentricity
0.00014
Inclination
43.0043°
RAAN
336.4036°
Arg. of periapsis
280.3758°
True anomaly
79.70932°
Mean anomaly
79.6933°
Eccentric anomaly
79.70131°
Mean motion
3.8173 °/min
Orbital period
94.31 mins
BSTAR
-0.000016889
Loading maneuver chart data...
Computing Atmospheric mass density...
Loading historical data...
Loading historical data...
Loading historical data...
Loading historical data...
Loading historical data...
Loading historical data...
Loading historical data...

Documentation

Showing up to 5 results
|